Location: Unspecified
(0.0000°N, 0.0000°E)
Time: 11:36:38
(UTC+00:00)

N. Korean satellite - Pass Details

Date: 27 May 2020
Orbit: 455 x 505 km, 97.2° (Epoch: 30 May)

Event Time Altitude Azimuth Distance (km) Brightness Sun altitude
Rises 04:46:33 0° 30° (NNE) 2,585 11.1 -16.4°
Reaches altitude 10° 04:48:51 10° 42° (NE) 1,700 10.3 -15.9°
Maximum altitude 04:51:59 27° 101° (E) 989 8.8 -15.2°
Drops below altitude 10° 04:55:06 10° 160° (SSE) 1,692 9.3 -14.4°
Sets 04:57:22 0° 172° (S) 2,569 10.1 -13.9°
